TimeCST,TemperatureF,Dew PointF,Humidity,Sea Level PressureIn,VisibilityMPH,Wind Direction,Wind SpeedMPH,Gust SpeedMPH,PrecipitationIn,Events,Conditions,WindDirDegrees,DateUTC
12:53 AM,54.0,43.0,66,30.29,10.0,Calm,Calm,-,N/A,,Mostly Cloudy,0,2012-11-16 06:53:00
1:53 AM,52.0,39.9,63,30.29,10.0,Calm,Calm,-,N/A,,Mostly Cloudy,0,2012-11-16 07:53:00
2:53 AM,53.1,39.9,61,30.30,10.0,NNE,5.8,-,N/A,,Overcast,30,2012-11-16 08:53:00
3:53 AM,53.1,39.0,59,30.30,10.0,North,6.9,-,N/A,,Overcast,360,2012-11-16 09:53:00
4:53 AM,52.0,37.0,57,30.30,10.0,NE,6.9,-,N/A,,Scattered Clouds,40,2012-11-16 10:53:00
5:53 AM,45.0,36.0,71,30.31,10.0,North,6.9,-,N/A,,Scattered Clouds,360,2012-11-16 11:53:00
6:53 AM,46.0,36.0,68,30.34,10.0,North,9.2,-,N/A,,Scattered Clouds,360,2012-11-16 12:53:00
7:53 AM,50.0,36.0,59,30.36,10.0,North,8.1,-,N/A,,Scattered Clouds,10,2012-11-16 13:53:00
8:53 AM,54.0,34.0,47,30.38,10.0,NE,11.5,-,N/A,,Scattered Clouds,40,2012-11-16 14:53:00
9:53 AM,57.0,33.1,40,30.39,10.0,North,8.1,-,N/A,,Scattered Clouds,10,2012-11-16 15:53:00
10:53 AM,61.0,32.0,34,30.38,10.0,NE,10.4,-,N/A,,Partly Cloudy,40,2012-11-16 16:53:00
11:53 AM,64.9,32.0,29,30.35,10.0,North,10.4,-,N/A,,Partly Cloudy,10,2012-11-16 17:53:00
12:53 PM,66.0,30.0,26,30.32,10.0,NE,10.4,18.4,N/A,,Partly Cloudy,40,2012-11-16 18:53:00
1:53 PM,68.0,28.0,22,30.29,10.0,NNE,11.5,18.4,N/A,,Partly Cloudy,30,2012-11-16 19:53:00
2:53 PM,68.0,27.0,21,30.27,10.0,NE,11.5,-,N/A,,Partly Cloudy,40,2012-11-16 20:53:00
3:53 PM,66.9,28.9,24,30.28,10.0,NNE,11.5,-,N/A,,Partly Cloudy,30,2012-11-16 21:53:00
4:53 PM,64.0,28.0,26,30.29,10.0,NE,11.5,-,N/A,,Partly Cloudy,40,2012-11-16 22:53:00
5:53 PM,59.0,28.9,32,30.30,10.0,ENE,6.9,-,N/A,,Partly Cloudy,60,2012-11-16 23:53:00
6:53 PM,57.0,28.9,34,30.32,10.0,NE,4.6,-,N/A,,Clear,50,2012-11-17 00:53:00
7:53 PM,45.0,30.9,58,30.34,10.0,Calm,Calm,-,N/A,,Clear,0,2012-11-17 01:53:00
8:53 PM,39.9,32.0,73,30.36,10.0,Calm,Calm,-,N/A,,Clear,0,2012-11-17 02:53:00
9:53 PM,39.0,32.0,76,30.37,10.0,Calm,Calm,-,N/A,,Clear,0,2012-11-17 03:53:00
10:53 PM,37.9,32.0,79,30.37,10.0,Calm,Calm,-,N/A,,Partly Cloudy,0,2012-11-17 04:53:00
11:53 PM,37.0,32.0,82,30.37,10.0,Calm,Calm,-,N/A,,Scattered Clouds,0,2012-11-17 05:53:00